Location: Tel Aviv
(32.0670°N, 34.7670°E)
Time: 15:26:55
(UTC+03:00)

ISS - Pass Details

Date: 23 May 2025
Orbit: 415 x 417 km, 51.6° (Epoch: 15 June)

Event Time Altitude Azimuth Distance (km) Brightness Sun altitude
Rises 21:47:09 0° 331° (NNW) 2,355 1.4 -23.3°
Reaches altitude 10° 21:49:54 10° 355° (N) 1,489 -0.3 -23.7°
Enters shadow 21:51:36 15° 25° (NNE) 1,216 -1.2 -23.9°
